TimeCST,TemperatureF,Dew PointF,Humidity,Sea Level PressureIn,VisibilityMPH,Wind Direction,Wind SpeedMPH,Gust SpeedMPH,PrecipitationIn,Events,Conditions,WindDirDegrees,DateUTC
12:56 AM,-0.9,-9.0,69,30.00,10.0,NW,12.7,-,N/A,,Clear,310,2013-01-31 06:56:00
1:56 AM,-2.9,-9.9,72,30.02,10.0,NW,16.1,-,N/A,,Clear,310,2013-01-31 07:56:00
2:56 AM,-4.0,-11.0,72,30.04,10.0,NW,19.6,23.0,N/A,,Clear,310,2013-01-31 08:56:00
3:56 AM,-5.1,-11.9,72,30.07,10.0,NW,23.0,27.6,N/A,,Mostly Cloudy,320,2013-01-31 09:56:00
4:56 AM,-6.0,-11.9,75,30.09,10.0,NW,20.7,-,N/A,,Overcast,320,2013-01-31 10:56:00
5:56 AM,-5.1,-11.0,76,30.12,9.0,WNW,16.1,24.2,0.00,Snow,Light Snow,300,2013-01-31 11:56:00
6:56 AM,-6.0,-13.0,72,30.17,4.0,NW,18.4,-,0.00,Snow,Light Snow,320,2013-01-31 12:56:00
7:56 AM,-7.1,-14.1,72,30.20,4.0,NNW,21.9,27.6,0.00,Snow,Light Snow,330,2013-01-31 13:56:00
8:56 AM,-7.1,-15.0,68,30.25,9.0,NW,21.9,29.9,0.00,Snow,Light Snow,320,2013-01-31 14:56:00
9:56 AM,-7.1,-15.0,68,30.29,10.0,NW,24.2,29.9,0.00,,Mostly Cloudy,310,2013-01-31 15:56:00
10:56 AM,-5.1,-13.0,69,30.32,9.0,NW,21.9,31.1,N/A,,Scattered Clouds,310,2013-01-31 16:56:00
11:19 AM,-5.8,-14.8,65,30.20,10.0,NW,20.7,32.2,N/A,,Mostly Cloudy,320,2013-01-31 17:19:00
11:45 AM,-4.0,-13.0,65,30.21,9.0,NW,24.2,32.2,N/A,,Scattered Clouds,320,2013-01-31 17:45:00
11:56 AM,-4.0,-13.0,65,30.34,10.0,NW,27.6,34.5,N/A,,Scattered Clouds,320,2013-01-31 17:56:00
12:28 PM,-4.0,-13.0,65,30.22,10.0,NW,24.2,31.1,N/A,,Mostly Cloudy,310,2013-01-31 18:28:00
12:56 PM,-2.9,-11.9,65,30.35,10.0,NW,25.3,31.1,N/A,,Mostly Cloudy,320,2013-01-31 18:56:00
1:56 PM,-2.9,-11.9,65,30.36,10.0,WNW,23.0,33.4,N/A,,Mostly Cloudy,300,2013-01-31 19:56:00
2:53 PM,-2.2,-11.2,66,30.25,10.0,NW,21.9,28.8,N/A,,Scattered Clouds,320,2013-01-31 20:53:00
2:56 PM,-2.0,-11.9,63,30.38,10.0,NW,20.7,28.8,N/A,,Scattered Clouds,310,2013-01-31 20:56:00
3:56 PM,-2.9,-13.0,62,30.40,10.0,NW,23.0,26.5,N/A,,Clear,310,2013-01-31 21:56:00
4:56 PM,-5.1,-13.0,69,30.41,10.0,WNW,20.7,26.5,N/A,,Partly Cloudy,300,2013-01-31 22:56:00
5:56 PM,-6.0,-14.1,68,30.43,10.0,WNW,19.6,26.5,N/A,,Partly Cloudy,300,2013-01-31 23:56:00
6:56 PM,-7.1,-14.1,72,30.45,10.0,WNW,12.7,19.6,N/A,,Clear,300,2013-02-01 00:56:00
7:56 PM,-7.1,-15.0,68,30.46,10.0,WNW,11.5,16.1,N/A,,Clear,300,2013-02-01 01:56:00
8:56 PM,-7.1,-14.1,72,30.46,10.0,NW,17.3,-,N/A,,Clear,310,2013-02-01 02:56:00
9:56 PM,-7.1,-14.1,72,30.45,10.0,WNW,10.4,-,N/A,,Clear,300,2013-02-01 03:56:00
10:56 PM,-8.0,-14.1,75,30.45,10.0,WNW,5.8,-,N/A,,Clear,300,2013-02-01 04:56:00
11:56 PM,-8.0,-14.1,75,30.44,10.0,West,4.6,-,N/A,,Clear,270,2013-02-01 05:56:00